Time,TemperatureF,DewpointF,PressureIn,WindDirection,WindDirectionDegrees,WindSpeedMPH,WindSpeedGustMPH,Humidity,HourlyPrecipIn,Conditions,Clouds,dailyrainin,SoftwareType,DateUTC
2013-08-04 00:03:00,62.0,58.0,29.82,SSW,204,0.0,0.0,88,0.00,,,0.00,,2013-08-04 04:03:00,
2013-08-04 00:12:00,62.0,58.0,29.82,SSW,204,0.0,0.0,88,0.00,,,0.00,,2013-08-04 04:12:00,
2013-08-04 00:22:00,62.0,58.0,29.82,SSW,204,0.0,0.0,88,0.00,,,0.00,,2013-08-04 04:22:00,
2013-08-04 00:32:00,61.0,58.0,29.82,SSW,204,0.0,0.0,89,0.00,,,0.00,,2013-08-04 04:32:00,
2013-08-04 00:42:00,61.0,58.0,29.82,SSW,204,0.0,0.0,89,0.00,,,0.00,,2013-08-04 04:42:00,
2013-08-04 00:52:00,60.0,57.0,29.81,SSW,204,0.0,0.0,89,0.00,,,0.00,,2013-08-04 04:52:00,
2013-08-04 01:02:00,60.0,57.0,29.81,SSW,204,0.0,0.0,89,0.00,,,0.00,,2013-08-04 05:02:00,
2013-08-04 01:12:00,60.0,57.0,29.81,SSW,204,0.0,0.0,89,0.00,,,0.00,,2013-08-04 05:12:00,
2013-08-04 01:22:00,60.0,57.0,29.81,SSW,204,0.0,0.0,90,0.00,,,0.00,,2013-08-04 05:22:00,
2013-08-04 01:32:00,59.0,56.0,29.80,SSW,204,0.0,0.0,89,0.00,,,0.00,,2013-08-04 05:32:00,
2013-08-04 01:42:00,59.0,56.0,29.80,SSW,204,0.0,0.0,89,0.00,,,0.00,,2013-08-04 05:42:00,
2013-08-04 01:52:00,59.0,56.0,29.80,SSW,204,0.0,0.0,89,0.00,,,0.00,,2013-08-04 05:52:00,
2013-08-04 02:02:00,58.0,55.0,29.80,SSW,204,0.0,0.0,90,0.00,,,0.00,,2013-08-04 06:02:00,
2013-08-04 02:12:00,58.0,55.0,29.80,SSW,204,0.0,0.0,90,0.00,,,0.00,,2013-08-04 06:12:00,
2013-08-04 02:22:00,58.0,55.0,29.80,SSW,204,0.0,0.0,90,0.00,,,0.00,,2013-08-04 06:22:00,
2013-08-04 02:32:00,58.0,55.0,29.80,SSW,204,0.0,0.0,90,0.00,,,0.00,,2013-08-04 06:32:00,
2013-08-04 02:43:00,58.0,56.0,29.80,SSW,204,0.0,0.0,92,0.00,,,0.00,,2013-08-04 06:43:00,
2013-08-04 02:52:00,58.0,56.0,29.80,SSW,204,0.0,0.0,92,0.00,,,0.00,,2013-08-04 06:52:00,
2013-08-04 03:02:00,58.0,56.0,29.80,SSW,204,0.0,0.0,92,0.00,,,0.00,,2013-08-04 07:02:00,
2013-08-04 03:12:00,57.0,54.0,29.80,SSW,204,0.0,1.0,91,0.00,,,0.00,,2013-08-04 07:12:00,
2013-08-04 03:22:00,57.0,54.0,29.80,SSW,204,0.0,1.0,91,0.00,,,0.00,,2013-08-04 07:22:00,
2013-08-04 03:32:00,57.0,54.0,29.80,SSW,204,0.0,1.0,91,0.00,,,0.00,,2013-08-04 07:32:00,
2013-08-04 03:43:00,57.0,54.0,29.80,SSW,204,0.0,1.0,91,0.00,,,0.00,,2013-08-04 07:43:00,
2013-08-04 03:53:00,57.0,55.0,29.80,SSW,204,0.0,0.0,92,0.00,,,0.00,,2013-08-04 07:53:00,
2013-08-04 04:02:00,56.0,54.0,29.80,SSW,204,0.0,1.0,92,0.00,,,0.00,,2013-08-04 08:02:00,
2013-08-04 04:12:00,56.0,54.0,29.80,SSW,204,0.0,1.0,92,0.00,,,0.00,,2013-08-04 08:12:00,
2013-08-04 04:23:00,56.0,54.0,29.80,SSW,204,0.0,1.0,92,0.00,,,0.00,,2013-08-04 08:23:00,
2013-08-04 04:33:00,56.0,54.0,29.80,SSW,204,0.0,0.0,92,0.00,,,0.00,,2013-08-04 08:33:00,
2013-08-04 04:43:00,56.0,54.0,29.80,SSW,204,0.0,0.0,92,0.00,,,0.00,,2013-08-04 08:43:00,
2013-08-04 04:53:00,56.0,54.0,29.80,SSW,204,0.0,0.0,92,0.00,,,0.00,,2013-08-04 08:53:00,
2013-08-04 05:02:00,56.0,54.0,29.80,SSW,204,0.0,0.0,93,0.00,,,0.00,,2013-08-04 09:02:00,
2013-08-04 05:12:00,56.0,54.0,29.80,SSW,204,0.0,0.0,93,0.00,,,0.00,,2013-08-04 09:12:00,
2013-08-04 05:22:00,56.0,54.0,29.80,SSW,204,0.0,0.0,93,0.00,,,0.00,,2013-08-04 09:22:00,
2013-08-04 05:32:00,56.0,54.0,29.80,SSW,204,0.0,0.0,93,0.00,,,0.00,,2013-08-04 09:32:00,
2013-08-04 05:43:00,56.0,54.0,29.80,SSW,204,0.0,0.0,93,0.00,,,0.00,,2013-08-04 09:43:00,
2013-08-04 06:02:00,56.0,54.0,29.81,SSW,204,0.0,0.0,92,0.00,,,0.00,,2013-08-04 10:02:00,
2013-08-04 06:12:00,56.0,54.0,29.81,SSW,204,0.0,0.0,92,0.00,,,0.00,,2013-08-04 10:12:00,
2013-08-04 06:22:00,57.0,55.0,29.81,SSW,204,0.0,0.0,92,0.00,,,0.00,,2013-08-04 10:22:00,
2013-08-04 06:32:00,57.0,55.0,29.81,SSW,204,0.0,0.0,92,0.00,,,0.00,,2013-08-04 10:32:00,
2013-08-04 06:43:00,57.0,55.0,29.81,SSW,205,0.0,2.0,92,0.00,,,0.00,,2013-08-04 10:43:00,
2013-08-04 06:53:00,57.0,55.0,29.81,SSW,205,0.0,2.0,92,0.00,,,0.00,,2013-08-04 10:53:00,
2013-08-04 07:02:00,57.0,55.0,29.81,SSW,205,0.0,2.0,92,0.00,,,0.00,,2013-08-04 11:02:00,
2013-08-04 07:12:00,57.0,55.0,29.81,SSW,205,0.0,2.0,92,0.00,,,0.00,,2013-08-04 11:12:00,
2013-08-04 07:22:00,57.0,55.0,29.81,SSW,205,0.0,2.0,92,0.00,,,0.00,,2013-08-04 11:22:00,
2013-08-04 07:32:00,61.0,58.0,29.82,SSW,211,2.0,3.0,91,0.00,,,0.00,,2013-08-04 11:32:00,
2013-08-04 07:42:00,62.0,59.0,29.82,SW,219,0.0,4.0,90,0.00,,,0.00,,2013-08-04 11:42:00,
2013-08-04 07:53:00,63.0,60.0,29.82,SW,219,0.0,0.0,89,0.00,,,0.00,,2013-08-04 11:53:00,
2013-08-04 08:02:00,63.0,60.0,29.82,SW,219,0.0,0.0,89,0.00,,,0.00,,2013-08-04 12:02:00,
2013-08-04 08:13:00,63.0,60.0,29.82,SW,219,0.0,0.0,89,0.00,,,0.00,,2013-08-04 12:13:00,
2013-08-04 08:22:00,63.0,60.0,29.82,SW,219,0.0,0.0,89,0.00,,,0.00,,2013-08-04 12:22:00,
2013-08-04 08:33:00,66.0,61.0,29.82,NW,322,6.0,7.0,84,0.00,,,0.00,,2013-08-04 12:33:00,
2013-08-04 08:43:00,67.0,62.0,29.82,WNW,296,0.0,7.0,83,0.00,,,0.00,,2013-08-04 12:43:00,
2013-08-04 08:53:00,67.0,62.0,29.82,WNW,296,0.0,7.0,83,0.00,,,0.00,,2013-08-04 12:53:00,
2013-08-04 09:32:00,69.0,64.0,29.82,NW,312,3.0,10.0,83,0.00,,,0.00,,2013-08-04 13:32:00,
2013-08-04 17:32:00,74.0,64.0,29.78,North,358,3.0,6.0,71,0.00,,,0.00,,2013-08-04 21:32:00,
2013-08-04 17:43:00,73.0,64.0,29.79,NW,305,0.0,11.0,73,0.00,,,0.00,,2013-08-04 21:43:00,
2013-08-04 18:02:00,73.0,64.0,29.79,NW,305,0.0,11.0,73,0.00,,,0.00,,2013-08-04 22:02:00,
2013-08-04 18:12:00,73.0,64.0,29.79,North,0,0.0,5.0,74,0.00,,,0.00,,2013-08-04 22:12:00,
2013-08-04 18:53:00,73.0,64.0,29.79,North,0,0.0,5.0,74,0.00,,,0.00,,2013-08-04 22:53:00,
2013-08-04 19:02:00,72.0,63.0,29.79,NW,307,2.0,10.0,73,0.00,,,0.00,,2013-08-04 23:02:00,
2013-08-04 19:12:00,72.0,63.0,29.79,NW,307,2.0,10.0,73,0.00,,,0.00,,2013-08-04 23:12:00,
2013-08-04 19:23:00,71.0,62.0,29.80,NW,305,0.0,4.0,73,0.00,,,0.00,,2013-08-04 23:23:00,
2013-08-04 19:32:00,71.0,62.0,29.80,NW,305,0.0,4.0,73,0.00,,,0.00,,2013-08-04 23:32:00,
2013-08-04 19:43:00,70.0,62.0,29.81,NW,305,0.0,4.0,75,0.00,,,0.00,,2013-08-04 23:43:00,
2013-08-04 19:53:00,70.0,62.0,29.83,NW,313,5.0,5.0,75,0.00,,,0.00,,2013-08-04 23:53:00,
2013-08-04 20:02:00,70.0,62.0,29.83,NW,313,5.0,5.0,75,0.00,,,0.00,,2013-08-05 00:02:00,
2013-08-04 20:12:00,70.0,62.0,29.83,NW,313,5.0,5.0,75,0.00,,,0.00,,2013-08-05 00:12:00,
2013-08-04 20:22:00,68.0,61.0,29.83,NNW,327,0.0,0.0,77,0.00,,,0.00,,2013-08-05 00:22:00,
2013-08-04 20:33:00,68.0,61.0,29.83,NNW,327,0.0,0.0,77,0.00,,,0.00,,2013-08-05 00:33:00,
2013-08-04 20:42:00,67.0,61.0,29.84,NNW,327,0.0,2.0,80,0.00,,,0.00,,2013-08-05 00:42:00,
2013-08-04 20:53:00,66.0,59.0,29.84,NNW,327,0.0,2.0,78,0.00,,,0.00,,2013-08-05 00:53:00,
2013-08-04 21:02:00,66.0,59.0,29.85,NNW,327,0.0,2.0,79,0.00,,,0.00,,2013-08-05 01:02:00,
2013-08-04 21:12:00,65.0,58.0,29.85,NNW,327,0.0,2.0,79,0.00,,,0.00,,2013-08-05 01:12:00,
2013-08-04 21:22:00,65.0,59.0,29.85,NNW,327,0.0,0.0,80,0.00,,,0.00,,2013-08-05 01:22:00,
2013-08-04 21:33:00,64.0,58.0,29.85,NNW,327,0.0,3.0,80,0.00,,,0.00,,2013-08-05 01:33:00,
2013-08-04 21:43:00,64.0,58.0,29.85,NNW,327,0.0,3.0,80,0.00,,,0.00,,2013-08-05 01:43:00,
2013-08-04 21:52:00,64.0,58.0,29.85,NNW,327,0.0,0.0,80,0.00,,,0.00,,2013-08-05 01:52:00,
2013-08-04 22:02:00,64.0,58.0,29.85,NNW,327,0.0,0.0,80,0.00,,,0.00,,2013-08-05 02:02:00,
2013-08-04 22:12:00,64.0,58.0,29.86,NW,310,0.0,6.0,80,0.00,,,0.00,,2013-08-05 02:12:00,
2013-08-04 22:22:00,64.0,58.0,29.86,NW,310,0.0,6.0,80,0.00,,,0.00,,2013-08-05 02:22:00,
2013-08-04 22:33:00,64.0,58.0,29.86,NW,310,0.0,6.0,80,0.00,,,0.00,,2013-08-05 02:33:00,
2013-08-04 22:43:00,64.0,58.0,29.86,NW,310,0.0,6.0,80,0.00,,,0.00,,2013-08-05 02:43:00,
2013-08-04 22:53:00,64.0,57.0,29.86,North,2,0.0,5.0,79,0.00,,,0.00,,2013-08-05 02:53:00,
2013-08-04 23:02:00,64.0,57.0,29.86,North,2,0.0,5.0,79,0.00,,,0.00,,2013-08-05 03:02:00,
2013-08-04 23:12:00,64.0,57.0,29.86,North,2,0.0,5.0,79,0.00,,,0.00,,2013-08-05 03:12:00,
2013-08-04 23:22:00,63.0,56.0,29.87,WNW,290,1.0,4.0,79,0.00,,,0.00,,2013-08-05 03:22:00,
2013-08-04 23:32:00,63.0,57.0,29.87,WNW,302,0.0,7.0,80,0.00,,,0.00,,2013-08-05 03:32:00,
2013-08-04 23:53:00,62.0,56.0,29.87,WNW,282,3.0,7.0,80,0.00,,,0.00,,2013-08-05 03:53:00,